Regional Weather Roundup
Issued by NWS Cleveland, OH

Home | Current Version | Previous Version | Graphics & Text | Print | Product List | Glossary On
Versions: 1 2 3 4 5 6 7 8 9 10 11 12 13 14 15 16 17 18 19 20 21 22 23 24 25 26 27 28 29 30 31 32 33 34 35 36 37 38 39 40 41 42 43 44 45 46 47 48 49 50
000
ASUS41 KCLE 170100
RWRCLE
OHIO REGIONAL WEATHER ROUNDUP
NATIONAL WEATHER SERVICE WILMINGTON, OH
900 PM EDT WED APR 16 2014

NOTE: "FAIR" INDICATES FEW OR NO CLOUDS BELOW 12,000 FEET WITH NO
SIGNIFICANT WEATHER AND/OR OBSTRUCTIONS TO VISIBILITY.

OHZ001>008-015>018-024>027-034-035-043-044-170200-
   NORTHWEST OHIO

CITY           SKY/WX    TMP DP  RH WIND       PRES   REMARKS
DEFIANCE       CLEAR     41  27  57 E7        30.32R
FINDLAY        PTCLDY    42  25  50 E8        30.32R
TOLEDO EXPRESS CLEAR     35  25  66 E13       30.35R WCI  26
TOLEDO METCALF CLEAR     35  26  69 E10       30.38R WCI  27
LIMA           MOCLDY    40  28  62 E7        30.30R
$$

OHZ009>014-019>023-028>033-038-089-170200-
   NORTHEAST OHIO

CITY           SKY/WX    TMP DP  RH WIND       PRES   REMARKS
CLE-HOPKINS    MOCLDY    41  20  43 SE7       30.41S
CLE-LAKEFRONT  CLEAR     43  18  36 SE7       30.39R
CUY CO. ARPT   PTCLDY    39  19  45 SE9       30.40S
LORAIN-ELYRIA  PTCLDY    37  28  70 E8        30.38S
ASHTABULA      CLEAR     33  20  58 NE5       30.43S WCI  29
AKRON-CANTON   PTCLDY    39  15  37 E7        30.37S
WOOSTER        NOT AVBL
MANSFIELD      MOCLDY    38  23  55 E8        30.34S
YOUNGSTOWN     MOCLDY    36  16  44 E3        30.39S
$$

OHZ042-051>053-060>062-070>072-077>081-170200-
  SOUTHWEST OHIO

CITY           SKY/WX    TMP DP  RH WIND       PRES   REMARKS
CINC-COVINGTON MOCLDY    45  21  38 E6        30.25S
CINC-LUNKEN    PTCLDY    45  21  38 NE5       30.27S
HAMILTON       MOCLDY    46  26  45 E7        30.27S
DAYTON         NOT AVBL
WRIGHT-PAT AFB MOCLDY    44  24  45 E7        30.28S
DAYTON GENERAL MOCLDY    45  24  43 E6        30.26S
WILMINGTON     PTCLDY    41  25  53 E6        30.27S
$$

OHZ036-037-039>041-045>050-054>059-063>069-073>076-082>088-170200-
  CENTRAL AND SOUTHEAST OHIO

CITY           SKY/WX    TMP DP  RH WIND       PRES   REMARKS
COLUMBUS       MOCLDY    44  23  43 E8        30.32S
OSU AIRPORT    MOCLDY    42  22  44 E9        30.31S
BOLTON FIELD   NOT AVBL
RICKENBACK AFB NOT AVBL
NEWARK         MOCLDY    42  21  43 E8        30.33S
MARION         PTCLDY    39  24  55 SE7       30.33S
LANCASTER      PTCLDY    41  23  48 E7        30.33S
ZANESVILLE     PTCLDY    42  18  37 E6        30.35R
NEW PHILLY     PTCLDY    41  16  36 E6        30.38S
$$



USA.gov is the U.S. government's official web portal to all federal, state and local government web resources and services.